,,,PA_Meas_PMT16A,,PR_Meas_QMR101_102,,RH_Meas_QMH101,,SR_Meas_QMS101,,TA_Meas_QMH101,,GenWind,,GenWind,
date,time,status,PA,status,PR,status,RH,status,SR,status,TA,status,DirAvg,status,SpdAvg,
2010-07-11, 00:00:04,VALID,1002.71,VALID,0,VALID,90.5483,VALID,0,VALID,23.6409,VALID,127,VALID,0,
2010-07-11, 00:01:04,VALID,1002.71,VALID,0,VALID,90.7009,VALID,0,VALID,23.6214,VALID,127,VALID,0,
2010-07-11, 00:02:04,VALID,1002.71,VALID,0,VALID,90.8001,VALID,0.112286,VALID,23.6019,VALID,127,VALID,0,
2010-07-11, 00:03:04,VALID,1002.69,VALID,0,VALID,90.9298,VALID,0,VALID,23.6019,VALID,127,VALID,0,
2010-07-11, 00:04:04,VALID,1002.72,VALID,0,VALID,91.0443,VALID,0,VALID,23.5823,VALID,127,VALID,0,
2010-07-11, 00:05:04,VALID,1002.72,VALID,0,VALID,91.1968,VALID,0,VALID,23.5841,VALID,127,VALID,0,
2010-07-11, 00:06:04,VALID,1002.67,VALID,0,VALID,91.3342,VALID,0,VALID,23.5628,VALID,127,VALID,0,
2010-07-11, 00:07:04,VALID,1002.67,VALID,0,VALID,91.441,VALID,0,VALID,23.6036,VALID,127,VALID,0,
2010-07-11, 00:08:04,VALID,1002.64,VALID,0,VALID,91.5326,VALID,0,VALID,23.6036,VALID,127,VALID,0.413672,
2010-07-11, 00:09:04,VALID,1002.67,VALID,0,VALID,91.5249,VALID,0,VALID,23.6427,VALID,143,VALID,0.591016,
2010-07-11, 00:10:04,VALID,1002.65,VALID,0,VALID,91.4181,VALID,0,VALID,23.6622,VALID,143,VALID,0.731641,
2010-07-11, 00:11:04,VALID,1002.66,VALID,0,VALID,91.296,VALID,0,VALID,23.6409,VALID,140,VALID,0.5,
2010-07-11, 00:12:05,VALID,1002.66,VALID,0,VALID,91.174,VALID,0,VALID,23.6817,VALID,140,VALID,0.512891,
2010-07-11, 00:13:05,VALID,1002.68,VALID,0,VALID,91.0061,VALID,0,VALID,23.6817,VALID,112,VALID,0.687109,
2010-07-11, 00:14:05,VALID,1002.65,VALID,0,VALID,90.7849,VALID,0,VALID,23.7207,VALID,112,VALID,0.359766,
2010-07-11, 00:15:05,VALID,1002.65,VALID,0,VALID,90.6399,VALID,0,VALID,23.7207,VALID,112,VALID,0.412891,
2010-07-11, 00:16:05,VALID,1002.64,VALID,0,VALID,90.4263,VALID,0,VALID,23.7597,VALID,112,VALID,0.214062,
2010-07-11, 00:17:05,VALID,1002.61,VALID,0,VALID,90.2431,VALID,0,VALID,23.7402,VALID,112,VALID,0.353516,
2010-07-11, 00:18:05,VALID,1002.56,VALID,0,VALID,90.1592,VALID,0,VALID,23.7402,VALID,112,VALID,0.366016,
2010-07-11, 00:19:05,VALID,1002.55,VALID,0,VALID,90.1668,VALID,0,VALID,23.7207,VALID,161,VALID,0.476953,
2010-07-11, 00:20:05,VALID,1002.53,VALID,0,VALID,90.2355,VALID,0,VALID,23.7207,VALID,161,VALID,0.519141,
2010-07-11, 00:21:05,VALID,1002.52,VALID,0,VALID,90.1897,VALID,0,VALID,23.7402,VALID,161,VALID,0.279297,
2010-07-11, 00:22:05,VALID,1002.49,VALID,0,VALID,90.0753,VALID,0,VALID,23.7402,VALID,161,VALID,0.333984,
2010-07-11, 00:23:05,VALID,1002.48,VALID,0,VALID,89.9761,VALID,0,VALID,23.7597,VALID,161,VALID,0.405078,
2010-07-11, 00:24:05,VALID,1002.47,VALID,0,VALID,89.8693,VALID,0,VALID,23.7597,VALID,161,VALID,0.365625,
2010-07-11, 00:25:05,VALID,1002.49,VALID,0,VALID,89.7701,VALID,0,VALID,23.7597,VALID,151,VALID,0.0222656,
2010-07-11, 00:26:05,VALID,1002.49,VALID,0,VALID,89.6786,VALID,0,VALID,23.7597,VALID,129,VALID,0.439844,
2010-07-11, 00:27:05,VALID,1002.49,VALID,0,VALID,89.6862,VALID,0,VALID,23.7597,VALID,129,VALID,0.0960938,
2010-07-11, 00:28:05,VALID,1002.46,VALID,0,VALID,89.6557,VALID,0,VALID,23.7384,VALID,129,VALID,0,
2010-07-11, 00:29:05,VALID,1002.48,VALID,0,VALID,89.6404,VALID,0,VALID,23.7402,VALID,129,VALID,0,
2010-07-11, 00:30:05,VALID,1002.49,VALID,0,VALID,89.8083,VALID,0,VALID,23.6994,VALID,129,VALID,0,
2010-07-11, 00:31:05,VALID,1002.48,VALID,0,VALID,89.9761,VALID,0,VALID,23.7012,VALID,129,VALID,0,
2010-07-11, 00:32:05,VALID,1002.49,VALID,0,VALID,90.0448,VALID,0,VALID,23.7012,VALID,128,VALID,0,
2010-07-11, 00:33:05,VALID,1002.49,VALID,0,VALID,90.1592,VALID,0,VALID,23.6817,VALID,124,VALID,0.453516,
2010-07-11, 00:34:05,VALID,1002.48,VALID,0,VALID,90.2279,VALID,0,VALID,23.6817,VALID,124,VALID,0.335156,
2010-07-11, 00:35:05,VALID,1002.49,VALID,0,VALID,90.266,VALID,0,VALID,23.7012,VALID,124,VALID,0,
2010-07-11, 00:36:05,VALID,1002.44,VALID,0,VALID,90.2966,VALID,0,VALID,23.7012,VALID,124,VALID,0,
2010-07-11, 00:37:05,VALID,1002.45,VALID,0,VALID,90.2279,VALID,0,VALID,23.6622,VALID,124,VALID,0,
2010-07-11, 00:38:05,VALID,1002.49,VALID,0,VALID,90.2279,VALID,0,VALID,23.6427,VALID,124,VALID,0,
2010-07-11, 00:39:05,VALID,1002.48,VALID,0,VALID,90.556,VALID,0,VALID,23.6036,VALID,124,VALID,0,
2010-07-11, 00:40:05,VALID,1002.49,VALID,0,VALID,90.8917,VALID,0,VALID,23.5841,VALID,124,VALID,0,
2010-07-11, 00:41:05,VALID,1002.5,VALID,0,VALID,91.0671,VALID,0,VALID,23.5841,VALID,124,VALID,0,
2010-07-11, 00:42:05,VALID,1002.5,VALID,0,VALID,91.1434,VALID,0,VALID,23.5451,VALID,124,VALID,0,
2010-07-11, 00:43:05,VALID,1002.48,VALID,0,VALID,91.3189,VALID,0,VALID,23.5256,VALID,88,VALID,0,
2010-07-11, 00:44:05,VALID,1002.47,VALID,0,VALID,91.5478,VALID,0,VALID,23.5043,VALID,335,VALID,0,
2010-07-11, 00:45:05,VALID,1002.5,VALID,0,VALID,91.6394,VALID,0,VALID,23.5061,VALID,335,VALID,0,
2010-07-11, 00:46:05,VALID,1002.5,VALID,0,VALID,91.6546,VALID,0,VALID,23.4671,VALID,335,VALID,0,
2010-07-11, 00:47:05,VALID,1002.49,VALID,0,VALID,91.8301,VALID,0.112286,VALID,23.4458,VALID,335,VALID,0,
2010-07-11, 00:48:05,VALID,1002.49,VALID,0,VALID,91.9217,VALID,0,VALID,23.4263,VALID,335,VALID,0,
2010-07-11, 00:49:05,VALID,1002.48,VALID,0,VALID,92.0666,VALID,0,VALID,23.4475,VALID,335,VALID,0,
2010-07-11, 00:50:05,VALID,1002.5,VALID,0,VALID,92.1658,VALID,0,VALID,23.4475,VALID,335,VALID,0,
2010-07-11, 00:51:05,VALID,1002.47,VALID,0,VALID,92.2268,VALID,0,VALID,23.428,VALID,335,VALID,0,
2010-07-11, 00:52:05,VALID,1002.47,VALID,0,VALID,92.2497,VALID,0,VALID,23.4085,VALID,335,VALID,0,
2010-07-11, 00:53:05,VALID,1002.44,VALID,0,VALID,92.3642,VALID,0,VALID,23.4085,VALID,335,VALID,0,
2010-07-11, 00:54:05,VALID,1002.45,VALID,0,VALID,92.4328,VALID,0,VALID,23.4085,VALID,335,VALID,0,
2010-07-11, 00:55:05,VALID,1002.44,VALID,0,VALID,92.5397,VALID,0,VALID,23.4085,VALID,335,VALID,0,
2010-07-11, 00:56:05,VALID,1002.44,VALID,0,VALID,92.6236,VALID,0,VALID,23.4085,VALID,335,VALID,0,
2010-07-11, 00:57:05,VALID,1002.42,VALID,0,VALID,92.6846,VALID,0,VALID,23.428,VALID,335,VALID,0,
2010-07-11, 00:58:05,VALID,1002.43,VALID,0,VALID,92.6999,VALID,0,VALID,23.428,VALID,335,VALID,0,
2010-07-11, 00:59:05,VALID,1002.46,VALID,0,VALID,92.7304,VALID,0,VALID,23.4085,VALID,335,VALID,0,
2010-07-11, 01:00:05,VALID,1002.45,VALID,0,VALID,92.7762,VALID,0,VALID,23.428,VALID,335,VALID,0,
2010-07-11, 01:01:05,VALID,1002.45,VALID,0,VALID,92.7685,VALID,0,VALID,23.428,VALID,335,VALID,0,
2010-07-11, 01:02:05,VALID,1002.48,VALID,0,VALID,92.7609,VALID,0,VALID,23.4085,VALID,335,VALID,0,
2010-07-11, 01:03:05,VALID,1002.45,VALID,0,VALID,92.7914,VALID,0,VALID,23.428,VALID,335,VALID,0,
2010-07-11, 01:04:05,VALID,1002.48,VALID,0,VALID,92.8372,VALID,0,VALID,23.4475,VALID,335,VALID,0,
2010-07-11, 01:05:05,VALID,1002.48,VALID,0,VALID,92.8372,VALID,0,VALID,23.4475,VALID,335,VALID,0,
2010-07-11, 01:06:05,VALID,1002.46,VALID,0,VALID,92.8677,VALID,0,VALID,23.428,VALID,335,VALID,0,
2010-07-11, 01:07:05,VALID,1002.49,VALID,0,VALID,92.8601,VALID,0,VALID,23.4475,VALID,335,VALID,0,
2010-07-11, 01:08:05,VALID,1002.49,VALID,0,VALID,92.8143,VALID,0,VALID,23.4475,VALID,335,VALID,0,
2010-07-11, 01:09:05,VALID,1002.47,VALID,0,VALID,92.7991,VALID,0,VALID,23.428,VALID,335,VALID,0,
2010-07-11, 01:10:05,VALID,1002.46,VALID,0,VALID,92.822,VALID,0,VALID,23.428,VALID,335,VALID,0,
2010-07-11, 01:11:05,VALID,1002.43,VALID,0,VALID,92.8372,VALID,0,VALID,23.4085,VALID,335,VALID,0,
2010-07-11, 01:12:05,VALID,1002.37,VALID,0,VALID,92.8754,VALID,0,VALID,23.4085,VALID,335,VALID,0,
2010-07-11, 01:13:05,VALID,1002.36,VALID,0,VALID,92.9135,VALID,0,VALID,23.428,VALID,335,VALID,0,
2010-07-11, 01:14:05,VALID,1002.34,VALID,0,VALID,92.944,VALID,0,VALID,23.428,VALID,335,VALID,0,
2010-07-11, 01:15:05,VALID,1002.32,VALID,0,VALID,92.9898,VALID,0,VALID,23.428,VALID,349,VALID,0,
2010-07-11, 01:16:05,VALID,1002.33,VALID,0,VALID,93.0432,VALID,0,VALID,23.4475,VALID,102,VALID,0.726563,
2010-07-11, 01:17:05,VALID,1002.32,VALID,0,VALID,93.0737,VALID,0,VALID,23.4671,VALID,102,VALID,0.946875,
2010-07-11, 01:18:05,VALID,1002.33,VALID,0,VALID,93.0814,VALID,0,VALID,23.4866,VALID,102,VALID,0.873828,
2010-07-11, 01:19:05,VALID,1002.35,VALID,0,VALID,93.0508,VALID,0,VALID,23.5061,VALID,102,VALID,0.8,
2010-07-11, 01:20:05,VALID,1002.34,VALID,0,VALID,92.9974,VALID,0,VALID,23.5061,VALID,102,VALID,0.685938,
2010-07-11, 01:21:05,VALID,1002.3,VALID,0,VALID,92.9669,VALID,0,VALID,23.5061,VALID,102,VALID,0.574609,
2010-07-11, 01:22:05,VALID,1002.26,VALID,0,VALID,92.9593,VALID,0,VALID,23.5061,VALID,102,VALID,0.416406,
2010-07-11, 01:23:05,VALID,1002.24,VALID,0,VALID,92.9211,VALID,0,VALID,23.5061,VALID,102,VALID,0.267188,
2010-07-11, 01:24:05,VALID,1002.19,VALID,0,VALID,92.9211,VALID,0,VALID,23.4848,VALID,102,VALID,0.145703,
2010-07-11, 01:25:05,VALID,1002.19,VALID,0,VALID,92.9135,VALID,0,VALID,23.5061,VALID,102,VALID,0,
2010-07-11, 01:26:05,VALID,1002.18,VALID,0,VALID,92.8983,VALID,0,VALID,23.4866,VALID,102,VALID,0,
2010-07-11, 01:27:05,VALID,1002.18,VALID,0,VALID,92.8754,VALID,0,VALID,23.4866,VALID,102,VALID,0,
2010-07-11, 01:28:05,VALID,1002.19,VALID,0,VALID,92.8983,VALID,0,VALID,23.4866,VALID,102,VALID,0,
2010-07-11, 01:29:05,VALID,1002.16,VALID,0,VALID,92.9517,VALID,0,VALID,23.4653,VALID,102,VALID,0.0203125,
2010-07-11, 01:30:05,VALID,1002.15,VALID,0,VALID,92.9974,VALID,0,VALID,23.5061,VALID,102,VALID,0.336719,
2010-07-11, 01:31:05,VALID,1002.09,VALID,0,VALID,93.0051,VALID,0,VALID,23.5061,VALID,102,VALID,0.450391,
2010-07-11, 01:32:05,VALID,1002.11,VALID,0,VALID,92.9974,VALID,0,VALID,23.4866,VALID,102,VALID,0.586328,
2010-07-11, 01:33:05,VALID,1002.04,VALID,0,VALID,93.0127,VALID,0,VALID,23.4671,VALID,135,VALID,0.599219,
2010-07-11, 01:34:05,VALID,1002.02,VALID,0,VALID,92.9745,VALID,0,VALID,23.4866,VALID,135,VALID,0.841406,
2010-07-11, 01:35:05,VALID,1001.98,VALID,0,VALID,92.9211,VALID,0,VALID,23.4866,VALID,135,VALID,0.566406,
2010-07-11, 01:36:05,VALID,1001.95,VALID,0,VALID,92.8525,VALID,0,VALID,23.5256,VALID,135,VALID,0.293359,
2010-07-11, 01:37:05,VALID,1001.97,VALID,0,VALID,92.7991,VALID,0,VALID,23.5061,VALID,135,VALID,0.535156,
2010-07-11, 01:38:05,VALID,1001.95,VALID,0,VALID,92.6923,VALID,0,VALID,23.5256,VALID,116,VALID,0.890625,
2010-07-11, 01:39:05,VALID,1001.91,VALID,0,VALID,92.5473,VALID,0,VALID,23.5043,VALID,114,VALID,0.911719,
2010-07-11, 01:40:05,VALID,1001.93,VALID,0,VALID,92.3489,VALID,0,VALID,23.5451,VALID,115,VALID,0.657031,
2010-07-11, 01:41:05,VALID,1001.91,VALID,0,VALID,92.2345,VALID,0,VALID,23.5451,VALID,115,VALID,0.705078,
2010-07-11, 01:42:05,VALID,1001.87,VALID,0,VALID,92.12,VALID,0,VALID,23.5646,VALID,115,VALID,0.659766,
2010-07-11, 01:43:05,VALID,1001.88,VALID,0,VALID,92.059,VALID,0,VALID,23.5841,VALID,115,VALID,0.655469,
2010-07-11, 01:44:05,VALID,1001.92,VALID,0,VALID,92.0056,VALID,0,VALID,23.6036,VALID,115,VALID,0.541406,
2010-07-11, 01:45:05,VALID,1001.92,VALID,0,VALID,91.8377,VALID,0,VALID,23.5841,VALID,151,VALID,0.928906,
2010-07-11, 01:46:05,VALID,1001.95,VALID,0,VALID,91.4257,VALID,0,VALID,23.5841,VALID,151,VALID,0.918359,
2010-07-11, 01:47:05,VALID,1001.95,VALID,0,VALID,90.9298,VALID,0,VALID,23.6036,VALID,151,VALID,0.816797,
2010-07-11, 01:48:05,VALID,1001.96,VALID,0,VALID,90.411,VALID,0,VALID,23.6214,VALID,150,VALID,1.08047,
2010-07-11, 01:49:05,VALID,1001.96,VALID,0,VALID,90.1211,VALID,0,VALID,23.6427,VALID,144,VALID,0.982422,
2010-07-11, 01:50:05,VALID,1001.98,VALID,0,VALID,89.8311,VALID,0,VALID,23.6427,VALID,138,VALID,1.00117,
2010-07-11, 01:51:05,VALID,1001.98,VALID,0,VALID,89.4573,VALID,0,VALID,23.6232,VALID,137,VALID,1.58008,
2010-07-11, 01:52:05,VALID,1001.98,VALID,0,VALID,89.4726,VALID,0,VALID,23.6622,VALID,139,VALID,0.934766,
2010-07-11, 01:53:05,VALID,1001.92,VALID,0,VALID,89.3505,VALID,0,VALID,23.6622,VALID,139,VALID,1.40234,
2010-07-11, 01:54:05,VALID,1001.92,VALID,0,VALID,89.2284,VALID,0,VALID,23.6622,VALID,150,VALID,1.43164,
2010-07-11, 01:55:05,VALID,1001.88,VALID,0,VALID,89.114,VALID,0,VALID,23.6604,VALID,150,VALID,1.3375,
2010-07-11, 01:56:05,VALID,1001.87,VALID,0,VALID,89.175,VALID,0,VALID,23.7012,VALID,165,VALID,0.720312,
2010-07-11, 01:57:05,VALID,1001.83,VALID,0,VALID,89.0758,VALID,0,VALID,23.7012,VALID,140,VALID,0.521484,
2010-07-11, 01:58:05,VALID,1001.84,VALID,0,VALID,89.0606,VALID,0,VALID,23.7402,VALID,140,VALID,0,
2010-07-11, 01:59:05,VALID,1001.83,VALID,0,VALID,89.0224,VALID,0,VALID,23.6994,VALID,140,VALID,0,
2010-07-11, 02:00:05,VALID,1001.85,VALID,0,VALID,89.03,VALID,0,VALID,23.7207,VALID,156,VALID,0.00429688,
2010-07-11, 02:01:05,VALID,1001.87,VALID,0,VALID,88.9919,VALID,0,VALID,23.7402,VALID,166,VALID,0,
2010-07-11, 02:02:05,VALID,1001.88,VALID,0,VALID,89.1674,VALID,0,VALID,23.7189,VALID,166,VALID,0,
2010-07-11, 02:03:05,VALID,1001.9,VALID,0,VALID,88.8393,VALID,0,VALID,23.7207,VALID,160,VALID,0,
2010-07-11, 02:04:05,VALID,1001.89,VALID,0,VALID,88.8698,VALID,0,VALID,23.7207,VALID,115,VALID,0,
2010-07-11, 02:05:05,VALID,1001.86,VALID,0,VALID,88.7401,VALID,0,VALID,23.7207,VALID,143,VALID,0,
2010-07-11, 02:06:05,VALID,1001.88,VALID,0,VALID,88.4654,VALID,0,VALID,23.7207,VALID,158,VALID,0,
2010-07-11, 02:07:05,VALID,1001.85,VALID,0,VALID,88.29,VALID,0,VALID,23.7597,VALID,163,VALID,0,
2010-07-11, 02:08:05,VALID,1001.82,VALID,0,VALID,88.4044,VALID,0,VALID,23.7793,VALID,163,VALID,0,
2010-07-11, 02:09:05,VALID,1001.81,VALID,0,VALID,88.4807,VALID,0,VALID,23.7384,VALID,163,VALID,0,
2010-07-11, 02:10:05,VALID,1001.8,VALID,0,VALID,88.5494,VALID,0,VALID,23.7597,VALID,163,VALID,0,
2010-07-11, 02:11:05,VALID,1001.82,VALID,0,VALID,88.5112,VALID,0,VALID,23.7597,VALID,162,VALID,0,
2010-07-11, 02:12:05,VALID,1001.84,VALID,0,VALID,88.2823,VALID,0,VALID,23.7597,VALID,145,VALID,0,
2010-07-11, 02:13:05,VALID,1001.83,VALID,0,VALID,88.4349,VALID,0,VALID,23.7597,VALID,117,VALID,0.75,
2010-07-11, 02:14:05,VALID,1001.89,VALID,0,VALID,88.4807,VALID,0,VALID,23.7402,VALID,117,VALID,0.720703,
2010-07-11, 02:15:05,VALID,1001.88,VALID,0,VALID,88.4654,VALID,0,VALID,23.7207,VALID,117,VALID,0.635547,
2010-07-11, 02:16:05,VALID,1001.88,VALID,0,VALID,88.3968,VALID,0,VALID,23.7207,VALID,117,VALID,0.54375,
2010-07-11, 02:17:05,VALID,1001.85,VALID,0,VALID,88.4654,VALID,0,VALID,23.6994,VALID,117,VALID,0.316406,
2010-07-11, 02:18:05,VALID,1001.82,VALID,0,VALID,88.496,VALID,0,VALID,23.7207,VALID,117,VALID,0.353516,
2010-07-11, 02:19:05,VALID,1001.81,VALID,0,VALID,88.412,VALID,0,VALID,23.7207,VALID,118,VALID,0.450781,
2010-07-11, 02:20:05,VALID,1001.79,VALID,0,VALID,88.4197,VALID,0,VALID,23.7402,VALID,118,VALID,0.496484,
2010-07-11, 02:21:05,VALID,1001.8,VALID,0,VALID,88.496,VALID,0,VALID,23.7207,VALID,118,VALID,0.38125,
2010-07-11, 02:22:05,VALID,1001.8,VALID,0,VALID,88.5341,VALID,0,VALID,23.7402,VALID,117,VALID,0,
2010-07-11, 02:23:05,VALID,1001.79,VALID,0,VALID,88.496,VALID,0,VALID,23.7402,VALID,117,VALID,0,
2010-07-11, 02:24:05,VALID,1001.82,VALID,0,VALID,88.7325,VALID,0,VALID,23.7402,VALID,118,VALID,0,
2010-07-11, 02:25:05,VALID,1001.8,VALID,0,VALID,88.7554,VALID,0,VALID,23.6994,VALID,117,VALID,0,
2010-07-11, 02:26:05,VALID,1001.79,VALID,0,VALID,88.496,VALID,0,VALID,23.7207,VALID,117,VALID,0,
2010-07-11, 02:27:05,VALID,1001.8,VALID,0,VALID,88.6333,VALID,0,VALID,23.7189,VALID,117,VALID,0,
2010-07-11, 02:28:05,VALID,1001.82,VALID,0,VALID,88.9003,VALID,0,VALID,23.7207,VALID,117,VALID,0,
2010-07-11, 02:29:05,VALID,1001.82,VALID,0,VALID,88.7859,VALID,0,VALID,23.7012,VALID,117,VALID,0,
2010-07-11, 02:30:05,VALID,1001.81,VALID,0,VALID,88.969,VALID,0,VALID,23.7012,VALID,117,VALID,0,
2010-07-11, 02:31:05,VALID,1001.8,VALID,0,VALID,89.0682,VALID,0,VALID,23.6817,VALID,117,VALID,0,
2010-07-11, 02:32:05,VALID,1001.8,VALID,0,VALID,89.0682,VALID,0,VALID,23.6622,VALID,117,VALID,0,
2010-07-11, 02:33:05,VALID,1001.77,VALID,0,VALID,88.9843,VALID,0,VALID,23.6622,VALID,117,VALID,0,
2010-07-11, 02:34:05,VALID,1001.76,VALID,0,VALID,89.0453,VALID,0,VALID,23.6817,VALID,117,VALID,0,
2010-07-11, 02:35:05,VALID,1001.74,VALID,0,VALID,89.1063,VALID,0,VALID,23.6799,VALID,117,VALID,0,
2010-07-11, 02:36:05,VALID,1001.69,VALID,0,VALID,89.0987,VALID,0,VALID,23.6799,VALID,117,VALID,0,
2010-07-11, 02:37:05,VALID,1001.73,VALID,0,VALID,89.1216,VALID,0,VALID,23.7012,VALID,117,VALID,0,
2010-07-11, 02:38:05,VALID,1001.71,VALID,0,VALID,89.2055,VALID,0,VALID,23.7012,VALID,117,VALID,0,
2010-07-11, 02:39:05,VALID,1001.7,VALID,0,VALID,89.3428,VALID,0,VALID,23.7012,VALID,117,VALID,0,
2010-07-11, 02:40:05,VALID,1001.66,VALID,0,VALID,89.526,VALID,0,VALID,23.6622,VALID,117,VALID,0,
2010-07-11, 02:41:05,VALID,1001.66,VALID,0,VALID,89.5717,VALID,0,VALID,23.6214,VALID,117,VALID,0,
2010-07-11, 02:42:05,VALID,1001.64,VALID,0,VALID,89.7091,VALID,0,VALID,23.6232,VALID,117,VALID,0,
2010-07-11, 02:43:05,VALID,1001.62,VALID,0,VALID,89.938,VALID,0,VALID,23.6036,VALID,117,VALID,0,
2010-07-11, 02:44:05,VALID,1001.63,VALID,0,VALID,90.1821,VALID,0,VALID,23.5823,VALID,117,VALID,0,
2010-07-11, 02:45:05,VALID,1001.61,VALID,0,VALID,90.2584,VALID,0,VALID,23.6036,VALID,117,VALID,0,
2010-07-11, 02:46:05,VALID,1001.63,VALID,0,VALID,90.1668,VALID,0,VALID,23.6036,VALID,117,VALID,0.729688,
2010-07-11, 02:47:05,VALID,1001.61,VALID,0,VALID,90.1363,VALID,0,VALID,23.6036,VALID,117,VALID,0.860937,
2010-07-11, 02:48:05,VALID,1001.58,VALID,0,VALID,90.205,VALID,0,VALID,23.6427,VALID,117,VALID,0.817187,
2010-07-11, 02:49:05,VALID,1001.58,VALID,0,VALID,90.266,VALID,0,VALID,23.6232,VALID,118,VALID,0.677734,
2010-07-11, 02:50:05,VALID,1001.58,VALID,0,VALID,90.2584,VALID,0,VALID,23.6019,VALID,123,VALID,0.516016,
2010-07-11, 02:51:05,VALID,1001.55,VALID,0,VALID,90.2737,VALID,0,VALID,23.6036,VALID,124,VALID,0.439453,
2010-07-11, 02:52:05,VALID,1001.5,VALID,0,VALID,90.3194,VALID,0,VALID,23.5823,VALID,131,VALID,0.439844,
2010-07-11, 02:53:05,VALID,1001.47,VALID,0,VALID,90.3042,VALID,0,VALID,23.5628,VALID,131,VALID,0.701953,
2010-07-11, 02:54:05,VALID,1001.46,VALID,0,VALID,90.2126,VALID,0,VALID,23.5841,VALID,131,VALID,0.479297,
2010-07-11, 02:55:05,VALID,1001.46,VALID,0,VALID,90.205,VALID,0,VALID,23.5823,VALID,130,VALID,0.458984,
2010-07-11, 02:56:04,VALID,1001.44,VALID,0,VALID,90.2279,VALID,0,VALID,23.6036,VALID,130,VALID,0.366016,
2010-07-11, 02:57:04,VALID,1001.47,VALID,0,VALID,90.1592,VALID,0,VALID,23.6036,VALID,130,VALID,0.520312,
2010-07-11, 02:58:04,VALID,1001.46,VALID,0,VALID,90.0829,VALID,0,VALID,23.6036,VALID,130,VALID,0.424609,
2010-07-11, 02:59:04,VALID,1001.45,VALID,0,VALID,89.8617,VALID,0,VALID,23.6036,VALID,118,VALID,0.830469,
2010-07-11, 03:00:04,VALID,1001.4,VALID,0,VALID,89.7243,VALID,0,VALID,23.6232,VALID,119,VALID,0.550391,
2010-07-11, 03:01:04,VALID,1001.41,VALID,0,VALID,89.6251,VALID,0,VALID,23.6214,VALID,119,VALID,0.221484,
2010-07-11, 03:02:04,VALID,1001.4,VALID,0,VALID,89.5794,VALID,0,VALID,23.6214,VALID,119,VALID,0.162109,
2010-07-11, 03:03:04,VALID,1001.34,VALID,0,VALID,89.587,VALID,0,VALID,23.6622,VALID,119,VALID,0.357031,
2010-07-11, 03:04:04,VALID,1001.31,VALID,0,VALID,89.5412,VALID,0,VALID,23.6622,VALID,183,VALID,0.61875,
2010-07-11, 03:05:04,VALID,1001.32,VALID,0,VALID,89.3657,VALID,0,VALID,23.6817,VALID,203,VALID,0.614453,
2010-07-11, 03:06:04,VALID,1001.31,VALID,0,VALID,89.03,VALID,0,VALID,23.7012,VALID,203,VALID,0.869531,
2010-07-11, 03:07:04,VALID,1001.29,VALID,0,VALID,88.557,VALID,0,VALID,23.7207,VALID,203,VALID,0.36875,
2010-07-11, 03:08:04,VALID,1001.3,VALID,0,VALID,88.5112,VALID,0,VALID,23.7402,VALID,203,VALID,0.405078,
2010-07-11, 03:09:04,VALID,1001.26,VALID,0,VALID,88.3739,VALID,0,VALID,23.7597,VALID,203,VALID,0.333984,
2010-07-11, 03:10:04,VALID,1001.27,VALID,0,VALID,88.1145,VALID,0,VALID,23.7793,VALID,202,VALID,0.0175781,
2010-07-11, 03:11:04,VALID,1001.28,VALID,0,VALID,87.9543,VALID,0,VALID,23.7988,VALID,202,VALID,0,
2010-07-11, 03:12:04,VALID,1001.26,VALID,0,VALID,87.7101,VALID,0,VALID,23.7775,VALID,143,VALID,0.782812,
2010-07-11, 03:13:04,VALID,1001.29,VALID,0,VALID,87.3363,VALID,0,VALID,23.7775,VALID,143,VALID,0.722266,
2010-07-11, 03:14:04,VALID,1001.3,VALID,0,VALID,87.2447,VALID,0,VALID,23.797,VALID,143,VALID,0.789063,
2010-07-11, 03:15:04,VALID,1001.3,VALID,0,VALID,87.3057,VALID,0,VALID,23.8183,VALID,143,VALID,0.637891,
2010-07-11, 03:16:04,VALID,1001.29,VALID,0,VALID,87.4736,VALID,0,VALID,23.8183,VALID,143,VALID,0.814062,
2010-07-11, 03:17:04,VALID,1001.3,VALID,0,VALID,87.5041,VALID,0,VALID,23.7775,VALID,148,VALID,0.832812,
2010-07-11, 03:18:04,VALID,1001.29,VALID,0,VALID,87.3286,VALID,0,VALID,23.7579,VALID,148,VALID,0.648828,
2010-07-11, 03:19:04,VALID,1001.31,VALID,0,VALID,87.3439,VALID,0,VALID,23.7579,VALID,157,VALID,0.6125,
2010-07-11, 03:20:04,VALID,1001.28,VALID,0,VALID,87.3134,VALID,0,VALID,23.7793,VALID,157,VALID,0.666406,
2010-07-11, 03:21:04,VALID,1001.3,VALID,0,VALID,87.0845,VALID,0,VALID,23.7793,VALID,157,VALID,0.569141,
2010-07-11, 03:22:04,VALID,1001.31,VALID,0,VALID,86.9166,VALID,0,VALID,23.7597,VALID,151,VALID,0.792969,
2010-07-11, 03:23:04,VALID,1001.32,VALID,0,VALID,86.8556,VALID,0,VALID,23.7988,VALID,151,VALID,0.342187,
2010-07-11, 03:24:04,VALID,1001.34,VALID,0,VALID,87.0311,VALID,0,VALID,23.7793,VALID,151,VALID,0.407422,
2010-07-11, 03:25:04,VALID,1001.35,VALID,0,VALID,87.0616,VALID,0,VALID,23.7579,VALID,146,VALID,0.533594,
2010-07-11, 03:26:04,VALID,1001.39,VALID,0,VALID,86.8556,VALID,0,VALID,23.7793,VALID,146,VALID,0.333594,
2010-07-11, 03:27:04,VALID,1001.39,VALID,0,VALID,86.764,VALID,0,VALID,23.7793,VALID,146,VALID,0.237891,
2010-07-11, 03:28:04,VALID,1001.39,VALID,0,VALID,86.7717,VALID,0,VALID,23.7988,VALID,146,VALID,0.0234375,
2010-07-11, 03:29:04,VALID,1001.43,VALID,0,VALID,87.0769,VALID,0,VALID,23.7988,VALID,129,VALID,0.253906,
2010-07-11, 03:30:04,VALID,1001.47,VALID,0,VALID,86.9853,VALID,0,VALID,23.7988,VALID,105,VALID,0.260547,
2010-07-11, 03:31:04,VALID,1001.47,VALID,0,VALID,87.0006,VALID,0,VALID,23.7988,VALID,105,VALID,0,
2010-07-11, 03:32:04,VALID,1001.48,VALID,0,VALID,87.1303,VALID,0,VALID,23.7793,VALID,105,VALID,0.360938,
2010-07-11, 03:33:04,VALID,1001.46,VALID,0,VALID,87.3668,VALID,0,VALID,23.7579,VALID,105,VALID,0.267188,
2010-07-11, 03:34:04,VALID,1001.47,VALID,0,VALID,87.4049,VALID,0,VALID,23.7597,VALID,105,VALID,0.275391,
2010-07-11, 03:35:04,VALID,1001.47,VALID,0,VALID,87.5041,VALID,0,VALID,23.7402,VALID,105,VALID,0.296875,
2010-07-11, 03:36:04,VALID,1001.47,VALID,0,VALID,87.5651,VALID,0,VALID,23.7207,VALID,105,VALID,0.139453,
2010-07-11, 03:37:04,VALID,1001.45,VALID,0,VALID,87.7177,VALID,0,VALID,23.7207,VALID,105,VALID,0.0128906,
2010-07-11, 03:38:04,VALID,1001.45,VALID,0,VALID,88.0306,VALID,0,VALID,23.7012,VALID,105,VALID,0,
2010-07-11, 03:39:04,VALID,1001.46,VALID,0,VALID,88.1145,VALID,0,VALID,23.6622,VALID,105,VALID,0,
2010-07-11, 03:40:04,VALID,1001.48,VALID,0,VALID,88.1068,VALID,0,VALID,23.6232,VALID,105,VALID,0,
2010-07-11, 03:41:04,VALID,1001.47,VALID,0,VALID,88.412,VALID,0,VALID,23.6232,VALID,105,VALID,0.167187,
2010-07-11, 03:42:04,VALID,1001.49,VALID,0,VALID,88.5494,VALID,0,VALID,23.6036,VALID,105,VALID,0.320703,
2010-07-11, 03:43:04,VALID,1001.51,VALID,0,VALID,88.6486,VALID,0,VALID,23.6232,VALID,105,VALID,0.388672,
2010-07-11, 03:44:04,VALID,1001.53,VALID,0,VALID,88.8469,VALID,0,VALID,23.6036,VALID,105,VALID,0.432031,
2010-07-11, 03:45:04,VALID,1001.55,VALID,0,VALID,89.1216,VALID,0,VALID,23.5823,VALID,105,VALID,0.411719,
2010-07-11, 03:46:04,VALID,1001.55,VALID,0,VALID,89.3276,VALID,0,VALID,23.6036,VALID,105,VALID,0.517578,
2010-07-11, 03:47:04,VALID,1001.58,VALID,0,VALID,89.5489,VALID,0,VALID,23.5841,VALID,105,VALID,0.374609,
2010-07-11, 03:48:04,VALID,1001.6,VALID,0,VALID,89.8235,VALID,0,VALID,23.5646,VALID,105,VALID,0.336719,
2010-07-11, 03:49:04,VALID,1001.62,VALID,0,VALID,89.9532,VALID,0,VALID,23.5646,VALID,105,VALID,0.569531,
2010-07-11, 03:50:04,VALID,1001.6,VALID,0,VALID,90.1058,VALID,0,VALID,23.5451,VALID,105,VALID,0.528906,